WP, 23, 201808162030,  10, DVTS,         CI,  , 1300N, 15830E,      , 2,  25, 2,     ,  ,     ,    ,     ,     ,     ,     ,     ,  ,  ,  ,  ,  ,    ,    , W,  KNES,  JK,   IM, 3, 1010 /////,      ,   , HMWRI8, LLCC, T, DT=1.0 BO SHR  MET=1.0 PT=1.0 FTBO DT
WP, 23, 201808170230,  10, DVTS,         CI,  , 1260N, 15810E,      , 3,  25, 2,     ,  ,     ,    ,     ,     ,     ,     ,     ,  ,  ,  ,  ,  ,    ,    , W,  KNES,  ER,  VIM, 5, 1010 /////,      ,   , HMWRI8, LLCC, T, DT=1.0 BO SHR  MET=0.0 PT=0.0 FTBO DT
WP, 23, 201808170830,  10, DVTS,         CI,  , 1270N, 15800E,      , 2,  25, 2,     ,  ,     ,    ,     ,     ,     ,     ,     ,  ,  ,  ,  ,  ,    ,    , W,  KNES,  ER,   IM, 3, 1515 /////,      ,   , HMWRI8, LLCC, T, DT=2.0 BO SHR  MET=1.0 PT=1.5 FTBO PT
WP, 23, 201808171430,  10, DVTS,         CI,  , 1250N, 15750E,      , 3,  25, 2,     ,  ,     ,    ,     ,     ,     ,     ,     ,  ,  ,  ,  ,  ,    ,    , W,  KNES,  BZ,   IM, 5, 1515 /////,      ,   , HMWRI8, LLCC, T, DT=2.0 BO SHR  MET=1.5 PT=1.5 FTBO MET
WP, 23, 201808172030,  10, DVTS,         CI,  , 1330N, 15580E,      , 2,  30, 2,     ,  ,     ,    ,     ,     ,     ,     ,     ,  ,  ,  ,  ,  ,    ,    , W,  KNES,  VK,  VIM, 3, 2020 /////,      ,   , HMWRI8, LLCC, T, DT=2.0 BO SHR  MET=2.0 PT=2.0 FTBO MET
WP, 23, 201808180230,  10, DVTS,         CI,  , 1430N, 15410E,      , 3,  30, 2,     ,  ,     ,    ,     ,     ,     ,     ,     ,  ,  ,  ,  ,  ,    ,    , W,  KNES,  ER,  VIM, 5, 2020 /////,      ,   , HMWRI8, LLCC, T, DT=2.0 BO CBND MET=2.0 PT=2.0 FTBO DT
WP, 23, 201808180830,  10, DVTS,         CI,  , 1420N, 15440E,      , 2,  35, 2,     ,  ,     ,    ,     ,     ,     ,     ,     ,  ,  ,  ,  ,  ,    ,    , W,  KNES,  ER,   IM, 3, 2525 /////,      ,   , HMWRI8, LLCC, T, DT=2.5 BO CBND MET=2.5 PT=2.5 FTBO DT
WP, 23, 201808181430,  10, DVTS,         CI,  , 1470N, 15320E,      , 2,  35, 2,     ,  ,     ,    ,     ,     ,     ,     ,     ,  ,  ,  ,  ,  ,    ,    , W,  KNES,  JF,   IM, 3, 2525 /////,      ,   , HMWRI8, LLCC, T, DT=3.0 BO SHR  MET=2.0 PT=2.5 FTBO PT
WP, 23, 201808182019,  30, WSAT,          C,  , 1480N, 15260E,      , 2,    ,  ,     ,  ,     ,    ,     ,     ,     ,     ,     ,  ,  ,  ,  ,  ,    ,    , W,  KNES,  MT,  ,    ,       ,   ,     ,     ,     ,    ,   WSAT,    ,     ,     ,     ,     ,     ,     ,     ,     ,     ,  ,  ,  ,  ,  ,  ,  ,  , 2, 37GHz
WP, 23, 201808182030,  10, DVTS,         CI,  , 1490N, 15300E,      , 2,  45, 2,     ,  ,     ,    ,     ,     ,     ,     ,     ,  ,  ,  ,  ,  ,    ,    , W,  KNES,  MT,  VIM, 3, 3030 /////,      ,   , HMWRI8, LLCC, T, DT=3.5 BO SHR  MET=3.0 PT=3.0 FTBO MET
WP, 23, 201808190230,  10, DVTS,         CI,  , 1520N, 15200E,      , 2,  45, 2,     ,  ,     ,    ,     ,     ,     ,     ,     ,  ,  ,  ,  ,  ,    ,    , W,  KNES,  ER,  VIM, 3, 3030 /////,      ,   , HMWRI8, LLCC, T, DT=3.0 BO SHR  MET=3.0 PT=3.0 FTBO DT
WP, 23, 201808190830,  10, DVTS,         CI,  , 1570N, 15080E,      , 2,  45, 2,     ,  ,     ,    ,     ,     ,     ,     ,     ,  ,  ,  ,  ,  ,    ,    , W,  KNES,  ER,   IM, 3, 3030 /////,      ,   , HMWRI8, LLCC, T, DT=3.0 BO SHR  MET=3.0 PT=3.0 FTBO DT
WP, 23, 201808190951,  30, GPMI,          C,  , 1600N, 15050E,      , 2,    ,  ,     ,  ,     ,    ,     ,     ,     ,     ,     ,  ,  ,  ,  ,  ,    ,    , W,  KNES,  BZ,  ,    ,       ,   ,     ,     ,     ,    ,   GPMI,    ,     ,     ,     ,     ,     ,     ,     ,     ,     ,  ,  ,  ,  ,  ,  ,  ,  , 2, 36GHz
WP, 23, 201808191048,  30, AMSU,          C,  , 1600N, 15010E,      , 2,    ,  ,     ,  ,     ,    ,     ,     ,     ,     ,     ,  ,  ,  ,  ,  ,    ,    , W,  KNES,  BZ,  ,    ,       ,   ,     ,     ,     ,    ,   AMSU,    ,     ,     ,     ,     ,     ,     ,     ,     ,     ,  ,  ,  ,  ,  ,  ,  ,  , 2, 89GHz
WP, 23, 201808191430,  10, DVTS,         CI,  , 1640N, 15000E,      , 2,  55, 2,     ,  ,     ,    ,     ,     ,     ,     ,     ,  ,  ,  ,  ,  ,    ,    , W,  KNES,  BZ,   IM, 3, 3535 /////,      ,   , HMWRI8, LLCC, T, DT=3.5 BO SHR  MET=3.5 PT=3.5 FTBO DT
WP, 23, 201808191813,  30, SSMS,          C,  , 1650N, 15010E,      , 2,    ,  ,     ,  ,     ,    ,     ,     ,     ,     ,     ,  ,  ,  ,  ,  ,    ,    , W,  KNES,  MT,  ,    ,       ,   ,     ,     ,     ,    ,   SSMS,    ,     ,     ,     ,     ,     ,     ,     ,     ,     ,  ,  ,  ,  ,  ,  ,  ,  , 2, 91GHz
WP, 23, 201808192014,  30, SSMS,          C,  , 1680N, 14960E,      , 2,    ,  ,     ,  ,     ,    ,     ,     ,     ,     ,     ,  ,  ,  ,  ,  ,    ,    , W,  KNES,  MT,  ,    ,       ,   ,     ,     ,     ,    ,   SSMS,    ,     ,     ,     ,     ,     ,     ,     ,     ,     ,  ,  ,  ,  ,  ,  ,  ,  , 2, 91GHz
WP, 23, 201808192030,  10, DVTS,         CI,  , 1680N, 14960E,      , 2,  65, 2,     ,  ,     ,    ,     ,     ,     ,     ,     ,  ,  ,  ,  ,  ,    ,    , W,  KNES,  MT,  VIM, 3, 4040 /////,      ,   , HMWRI8, LLCC, T, DT=4.0 BO CBND MET=4.0 PT=4.0 FTBO DT
WP, 23, 201808192318,  30, AMSU,          C,  , 1700N, 14900E,      , 2,    ,  ,     ,  ,     ,    ,     ,     ,     ,     ,     ,  ,  ,  ,  ,  ,    ,    , W,  KNES,  JF,  ,    ,       ,   ,     ,     ,     ,    ,   AMSU,    ,     ,     ,     ,     ,     ,     ,     ,     ,     ,  ,  ,  ,  ,  ,  ,  ,  , 2, 89GHz
WP, 23, 201808200230,  10, DVTS,         CI,  , 1720N, 14860E,      , 2,  65, 2,     ,  ,     ,    ,     ,     ,     ,     ,     ,  ,  ,  ,  ,  ,    ,    , W,  KNES,  JF,  VIM, 3, 4040 /////,      ,   , HMWRI8, LLCC, T, DT=4.0 BO EMB  MET=4.0 PT=4.0 FTBO MET
WP, 23, 201808200830,  10, DVTS,         CI,  , 1750N, 14810E,      , 2,  65, 2,     ,  ,     ,    ,     ,     ,     ,     ,     ,  ,  ,  ,  ,  ,    ,    , W,  KNES,  JF,  VIM, 3, 3540 /////,      ,   , HMWRI8, LLCC, T, DT=4.0 BO EMB  MET=3.5 PT=3.5 FTBO MET
WP, 23, 201808201128,  30, AMSU,          C,  , 1840N, 14800E,      , 1,    ,  ,     ,  ,     ,    ,     ,     ,     ,     ,     ,  ,  ,  ,  ,  ,    ,    , W,  KNES,  BZ,  ,    ,       ,   ,     ,     ,     ,    ,   AMSU,    ,     ,     ,     ,     ,     ,     ,     ,     ,     ,  ,  ,  ,  ,  ,  ,  ,  , 1, 89GHz
WP, 23, 201808201430,  10, DVTS,         CI,  , 1890N, 14690E,      , 1,  65, 2,     ,  ,     ,    ,     ,     ,     ,     ,     ,  ,  ,  ,  ,  ,    ,    , W,  KNES,  BZ,   IM, 1, 4040 /////,      ,   , HMWRI8, LLCC, T, DT=4.0 BO EYE  MET=4.0 PT=4.0 FTBO DT
WP, 23, 201808201740,  30, SSMI,          C,  , 1930N, 14630E,      , 2,    ,  ,     ,  ,     ,    ,     ,     ,     ,     ,     ,  ,  ,  ,  ,  ,    ,    , W,  KNES,  MT,  ,    ,       ,   ,     ,     ,     ,    ,   SSMI,    ,     ,     ,     ,     ,     ,     ,     ,     ,     ,  ,  ,  ,  ,  ,  ,  ,  , 2, 85GHz
WP, 23, 201808202001,  30, SSMS,          C,  , 1960N, 14570E,      , 2,    ,  ,     ,  ,     ,    ,     ,     ,     ,     ,     ,  ,  ,  ,  ,  ,    ,    , W,  KNES,  MT,  ,    ,       ,   ,     ,     ,     ,    ,   SSMS,    ,     ,     ,     ,     ,     ,     ,     ,     ,     ,  ,  ,  ,  ,  ,  ,  ,  , 2, 91GHz
WP, 23, 201808202030,  10, DVTS,         CI,  , 1960N, 14570E,      , 2,  65, 2,     ,  ,     ,    ,     ,     ,     ,     ,     ,  ,  ,  ,  ,  ,    ,    , W,  KNES,  MT,  VIM, 3, 4040 /////,      ,   , HMWRI8, LLCC, T, DT=4.0 BO CBND MET=4.0 PT=4.0 FTBO DT
WP, 23, 201808210230,  10, DVTS,         CI,  , 2060N, 14470E,      , 2,  77, 2,     ,  ,     ,    ,     ,     ,     ,     ,     ,  ,  ,  ,  ,  ,    ,    , W,  KNES,  JF,  VIM, 3, 4545 /////,      ,   , HMWRI8, LLCC, T, DT=4.5 BO CBND MET=4.5 PT=4.5 FTBO DT
WP, 23, 201808210830,  10, DVTS,         CI,  , 2160N, 14340E,      , 1,  77, 2,     ,  ,     ,    ,     ,     ,     ,     ,     ,  ,  ,  ,  ,  ,    ,    , W,  KNES,  JF,   IM, 1, 4545 /////,      ,   , HMWRI8, LLCC, T, DT=4.5 BO EYE  MET=5.0 PT=4.5 FTBO DT
WP, 23, 201808211430,  10, DVTS,         CI,  , 2250N, 14210E,      , 1,  77, 2,     ,  ,     ,    ,     ,     ,     ,     ,     ,  ,  ,  ,  ,  ,    ,    , W,  KNES,  BZ,   IM, 1, 4045 /////,      ,   , HMWRI8, LLCC, T, DT=4.0 BO EYE  MET=4.5 PT=4.5 FTBO DT
WP, 23, 201808212100,  10, DVTS,         CI,  , 2350N, 14070E,      , 1, 102, 2,     ,  ,     ,    ,     ,     ,     ,     ,     ,  ,  ,  ,  ,  ,    ,    , W,  KNES,  MT,  VIM, 1, 5555 /////,      ,   , HMWRI8, LLCC, T, DT=6.5 BO EYE  MET=5.5 PT=6.0 FTBO RI
WP, 23, 201808220230,  10, DVTS,         CI,  , 2460N, 13930E,      , 1, 102, 2,     ,  ,     ,    ,     ,     ,     ,     ,     ,  ,  ,  ,  ,  ,    ,    , W,  KNES,  JF,  VIM, 1, 5555 /////,      ,   , HMWRI8, LLCC, T, DT=5.5 BO EYE  MET=6.0 PT=5.5 FTBO DT
WP, 23, 201808220830,  10, DVTS,         CI,  , 2610N, 13820E,      , 1,  77, 2,     ,  ,     ,    ,     ,     ,     ,     ,     ,  ,  ,  ,  ,  ,    ,    , W,  KNES,  JF,  VIM, 1, 4545 /////,      ,   , HMWRI8, LLCC, T, DT=4.0 BO EYE  MET=4.0 PT=4.0 FTBO CON
WP, 23, 201808221430,  10, DVTS,         CI,  , 2770N, 13680E,      , 1,  90, 2,     ,  ,     ,    ,     ,     ,     ,     ,     ,  ,  ,  ,  ,  ,    ,    , W,  KNES,  VK,   IM, 1, 4050 /////,      ,   , HMWRI8, LLCC, T, DT=4.0 BO EYE  MET=3.5 PT=4.0 FTBO DT
WP, 23, 201808222030,  10, DVTS,         CI,  , 2900N, 13550E,      , 1,  77, 2,     ,  ,     ,    ,     ,     ,     ,     ,     ,  ,  ,  ,  ,  ,    ,    , W,  KNES,  MT,   IM, 1, 4545 /////,      ,   , HMWRI8, LLCC, T, DT=4.5 BO EYE  MET=4.5 PT=4.5 FTBO DT
WP, 23, 201808230230,  10, DVTS,         CI,  , 3050N, 13480E,      , 2,  77, 2,     ,  ,     ,    ,     ,     ,     ,     ,     ,  ,  ,  ,  ,  ,    ,    , W,  KNES,  JF,  VIM, 3, 3545 /////,      ,   , HMWRI8, LLCC, T, DT=3.5 BO CBND MET=4.0 PT=3.5 FTBO DT
WP, 23, 201808230830,  10, DVTS,         CI,  , 3260N, 13430E,      , 2,  65, 2,     ,  ,     ,    ,     ,     ,     ,     ,     ,  ,  ,  ,  ,  ,    ,    , W,  KNES,  JF,  VIM, 3, 3040 /////,      ,   , HMWRI8, LLCC, T, DT=2.5 BO CBND MET=3.0 PT=2.5 FTBO CON
WP, 23, 201808230938,  30, SSMS,          C,  , 3320N, 13450E,      , 2,    ,  ,     ,  ,     ,    ,     ,     ,     ,     ,     ,  ,  ,  ,  ,  ,    ,    , W,  KNES,  JV,  ,    ,       ,   ,     ,     ,     ,    ,   SSMS,    ,     ,     ,     ,     ,     ,     ,     ,     ,     ,  ,  ,  ,  ,  ,  ,  ,  , 2, 37GHz
WP, 23, 201808231430,  10, DVTS,          C,  , 3390N, 13460E,      , 2,   0, 2,     ,  ,     ,    ,     ,     ,     ,     ,     ,  ,  ,  ,  ,  ,    ,    , W,  KNES,  JV,   IM, 3, 0000 /////,      ,   , HMWRI8, LLCC, T, OVERLAND
WP, 23, 201808232030,  10, DVTS,         CI,  , 3770N, 13530E,      , 2,  45, 2,     ,  ,     ,    ,     ,     ,     ,     ,     ,  ,  ,  ,  ,  ,    ,    , W,  KNES,  MT,   IM, 3, 2530 /////,      ,   , HMWRI8, LLCC, T, DT=2.5 BO SHR  MET=3.0 PT=2.5 FTBO PT
WP, 23, 201808240230,  10, DVTS,          C,  , 3990N, 13690E,      , 2,   0, 2,     ,  ,     ,    ,     ,     ,     ,     ,     ,  ,  ,  ,  ,  ,    ,    , W,  KNES,  VK,  VIM, 3, 0000 /////,      ,   , HMWRI8, LLCC, E, EXTRATROPICAL
